User: anonymous
Location: Maiden_LMO
(35.5760°N, 81.2120°W)
Time: 19:26:39
(UTC-04:00)
Language:

ADEOS II - Orbit

View from above orbital plane
View from above orbital plane
View from above satellite
View from above satellite

Ground track
Ground track

The orbit data is extracted from the following two-line orbital elements,

1 27597U 02056A   14202.66880324  .00000082  00000-0  50551-4 0  3500
2 27597 098.2746 208.7328 0001284 145.2585 349.0414 14.26828846604018
Epoch (UTC): 21 July 2014 16:03:04
Eccentricity: 0.0001284
inclination: 98.2746°
perigee height: 801 km
apogee height: 803 km
right ascension of ascending node: 208.7328°
argument of perigee: 145.2585°
revolutions per day: 14.26828846
mean anomaly at epoch: 349.0414°
orbit number at epoch: 60401

The dashed part of the orbit path shows where the satellite is in the earth's shadow,  

DLR